| time (UTC) | temp C | wind direction | speed KPH | gust KPH | rain 1hr cm | rain 24hr cm | rain mn cm | humidity % | barometer mb |
| 20260506082441 | 11 | 0 | 0.0 | 0.0 | 0.00 | 0.00 | 0.00 | 88 | 1018.3 |
| 20260506081928 | 11 | 0 | 0.0 | 0.0 | 0.00 | 0.00 | 0.00 | 88 | 1018.2 |
| 20260506081415 | 11 | 0 | 0.0 | 8.0 | 0.00 | 0.00 | 0.00 | 88 | 1018.1 |
| 20260506080903 | 11 | 0 | 0.0 | 8.0 | 0.00 | 0.00 | 0.00 | 88 | 1018.0 |
| 20260506080349 | 11 | 0 | 1.6 | 8.0 | 0.00 | 0.00 | 0.00 | 88 | 1018.1 |
| 20260506072718 | 11 | 0 | 0.0 | 0.0 | 0.00 | 0.00 | 0.00 | 88 | 1017.7 |
| 20260506072205 | 11 | 0 | 0.0 | 0.0 | 0.00 | 0.00 | 0.00 | 88 | 1017.7 |
| 20260506071652 | 11 | 0 | 0.0 | 0.0 | 0.00 | 0.00 | 0.00 | 88 | 1017.6 |
| 20260506071140 | 11 | 0 | 0.0 | 0.0 | 0.00 | 0.00 | 0.00 | 88 | 1017.6 |
| 20260506070626 | 11 | 0 | 0.0 | 0.0 | 0.00 | 0.00 | 0.00 | 88 | 1017.6 |
| 20260506070200 | 11 | 0 | 0.0 | 0.0 | 0.00 | 0.00 | 0.00 | 87 | 1017.5 |
| 20260506070113 | 11 | 0 | 0.0 | 0.0 | 0.00 | 0.00 | 0.00 | 87 | 1017.5 |
| 20260506062442 | 11 | 0 | 0.0 | 0.0 | 0.00 | 0.00 | 0.00 | 87 | 1017.6 |
| 20260506061929 | 11 | 0 | 0.0 | 0.0 | 0.00 | 0.00 | 0.00 | 87 | 1017.5 |
| 20260506060350 | 11 | 0 | 0.0 | 0.0 | 0.00 | 0.00 | 0.00 | 87 | 1017.5 |
| 20260506051141 | 11 | 0 | 0.0 | 0.0 | 0.00 | 0.00 | 0.00 | 87 | 1017.4 |
| 20260506050627 | 11 | 0 | 0.0 | 0.0 | 0.00 | 0.00 | 0.00 | 87 | 1017.4 |
| 20260506050114 | 11 | 0 | 0.0 | 0.0 | 0.00 | 0.00 | 0.00 | 87 | 1017.3 |
| 20260506045048 | 11 | 0 | 0.0 | 0.0 | 0.00 | 0.00 | 0.00 | 87 | 1017.2 |
| 20260506044022 | 11 | 0 | 0.0 | 0.0 | 0.00 | 0.00 | 0.00 | 87 | 1017.2 |
| 20260506043509 | 11 | 0 | 0.0 | 0.0 | 0.00 | 0.00 | 0.00 | 87 | 1017.2 |
| 20260506042956 | 11 | 0 | 0.0 | 0.0 | 0.00 | 0.00 | 0.00 | 87 | 1017.2 |
| 20260506042443 | 11 | 0 | 0.0 | 0.0 | 0.00 | 0.00 | 0.00 | 87 | 1017.0 |
| 20260506041930 | 11 | 0 | 0.0 | 0.0 | 0.00 | 0.00 | 0.00 | 87 | 1016.9 |
| 20260506041417 | 11 | 0 | 0.0 | 0.0 | 0.00 | 0.00 | 0.00 | 87 | 1016.8 |
| 20260506040351 | 11 | 0 | 0.0 | 0.0 | 0.00 | 0.00 | 0.00 | 87 | 1016.7 |
| 20260506035838 | 11 | 0 | 0.0 | 0.0 | 0.00 | 0.00 | 0.00 | 87 | 1016.8 |
| 20260506035325 | 11 | 0 | 0.0 | 0.0 | 0.00 | 0.00 | 0.00 | 87 | 1016.7 |
| 20260506034812 | 11 | 0 | 0.0 | 0.0 | 0.00 | 0.00 | 0.00 | 87 | 1016.6 |
| 20260506034259 | 11 | 0 | 0.0 | 0.0 | 0.00 | 0.00 | 0.00 | 87 | 1016.5 |
| 20260506033746 | 11 | 0 | 0.0 | 0.0 | 0.00 | 0.00 | 0.00 | 87 | 1016.6 |
| 20260506033233 | 11 | 0 | 0.0 | 0.0 | 0.00 | 0.00 | 0.00 | 87 | 1016.5 |
| 20260506032720 | 11 | 0 | 0.0 | 0.0 | 0.00 | 0.00 | 0.00 | 87 | 1016.6 |
| 20260506032207 | 11 | 0 | 0.0 | 0.0 | 0.00 | 0.00 | 0.00 | 87 | 1016.5 |
| 20260506031655 | 11 | 0 | 0.0 | 0.0 | 0.00 | 0.00 | 0.00 | 87 | 1016.5 |
| 20260506030629 | 11 | 0 | 0.0 | 8.0 | 0.00 | 0.00 | 0.00 | 87 | 1016.4 |
| 20260506025602 | 11 | 65 | 0.0 | 6.4 | 0.00 | 0.00 | 0.00 | 87 | 1016.4 |
| 20260506025049 | 11 | 322 | 0.0 | 4.8 | 0.00 | 0.00 | 0.00 | 87 | 1016.4 |
| 20260506024538 | 11 | 0 | 0.0 | 0.0 | 0.00 | 0.00 | 0.00 | 87 | 1016.4 |
| 20260506024023 | 11 | 0 | 0.0 | 0.0 | 0.00 | 0.00 | 0.00 | 87 | 1016.3 |
| 20260506023510 | 11 | 0 | 0.0 | 8.0 | 0.00 | 0.00 | 0.00 | 87 | 1016.2 |
| 20260506022957 | 11 | 0 | 0.0 | 8.0 | 0.00 | 0.00 | 0.00 | 87 | 1016.2 |
| 20260506022444 | 11 | 305 | 0.0 | 8.0 | 0.00 | 0.00 | 0.00 | 87 | 1016.2 |
| 20260506021931 | 11 | 0 | 0.0 | 6.4 | 0.00 | 0.00 | 0.00 | 87 | 1016.1 |
| 20260506021418 | 11 | 9 | 0.0 | 6.4 | 0.00 | 0.00 | 0.00 | 87 | 1016.1 |
| 20260506020905 | 11 | 0 | 0.0 | 0.0 | 0.00 | 0.00 | 0.00 | 87 | 1016.2 |
| 20260506020352 | 11 | 0 | 0.0 | 9.7 | 0.00 | 0.00 | 0.00 | 87 | 1016.2 |
| 20260506015839 | 11 | 0 | 0.0 | 9.7 | 0.00 | 0.00 | 0.00 | 87 | 1016.2 |
| 20260506015326 | 11 | 0 | 4.8 | 9.7 | 0.00 | 0.00 | 0.00 | 87 | 1016.2 |
| 20260506014813 | 11 | 320 | 0.0 | 8.0 | 0.00 | 0.00 | 0.00 | 87 | 1016.2 |
| 20260506014300 | 11 | 0 | 0.0 | 8.0 | 0.00 | 0.00 | 0.00 | 87 | 1016.2 |
| 20260506013747 | 11 | 336 | 0.0 | 8.0 | 0.00 | 0.00 | 0.00 | 87 | 1016.2 |
| 20260506013234 | 11 | 0 | 0.0 | 9.7 | 0.00 | 0.00 | 0.00 | 87 | 1016.1 |
| 20260506012721 | 11 | 301 | 0.0 | 9.7 | 0.00 | 0.00 | 0.00 | 87 | 1016.1 |
| 20260506012208 | 11 | 9 | 0.0 | 9.7 | 0.00 | 0.00 | 0.00 | 88 | 1016.2 |
| 20260506011655 | 11 | 322 | 1.6 | 8.0 | 0.00 | 0.00 | 0.00 | 87 | 1016.2 |
| 20260506011142 | 11 | 298 | 6.4 | 11.3 | 0.00 | 0.00 | 0.00 | 87 | 1016.1 |
| 20260506010629 | 11 | 299 | 4.8 | 11.3 | 0.00 | 0.00 | 0.00 | 88 | 1016.2 |
| 20260506010116 | 11 | 316 | 4.8 | 11.3 | 0.00 | 0.00 | 0.00 | 87 | 1016.2 |
| 20260506005603 | 11 | 316 | 6.4 | 9.7 | 0.00 | 0.00 | 0.00 | 88 | 1016.2 |
| 20260506005050 | 11 | 53 | 0.0 | 14.5 | 0.00 | 0.00 | 0.00 | 88 | 1016.2 |
| 20260506004538 | 11 | 1 | 8.0 | 14.5 | 0.00 | 0.00 | 0.00 | 87 | 1016.1 |
| 20260506004024 | 11 | 305 | 8.0 | 14.5 | 0.00 | 0.00 | 0.00 | 87 | 1016.1 |
| 20260506002958 | 11 | 294 | 3.2 | 11.3 | 0.00 | 0.00 | 0.00 | 88 | 1016.1 |
| 20260506002445 | 11 | 0 | 0.0 | 11.3 | 0.00 | 0.00 | 0.00 | 88 | 1016.2 |
| 20260506001932 | 11 | 0 | 0.0 | 0.0 | 0.00 | 0.00 | 0.00 | 88 | 1016.2 |
| 20260506001419 | 11 | 323 | 1.6 | 14.5 | 0.00 | 0.00 | 0.00 | 88 | 1016.2 |
| 20260506000906 | 11 | 295 | 4.8 | 14.5 | 0.00 | 0.00 | 0.00 | 88 | 1016.2 |
| 20260506000354 | 11 | 312 | 9.7 | 11.3 | 0.00 | 0.00 | 0.00 | 88 | 1016.2 |
| 20260505235840 | 11 | 287 | 0.0 | 11.3 | 0.00 | 0.00 | 0.00 | 88 | 1016.2 |
| 20260505235327 | 11 | 0 | 4.8 | 12.9 | 0.00 | 0.00 | 0.00 | 88 | 1016.3 |
| 20260505234814 | 11 | 0 | 8.0 | 12.9 | 0.00 | 0.00 | 0.00 | 88 | 1016.2 |
| 20260505234301 | 11 | 310 | 9.7 | 12.9 | 0.00 | 0.00 | 0.00 | 88 | 1016.2 |
| 20260505233235 | 11 | 315 | 9.7 | 12.9 | 0.00 | 0.00 | 0.00 | 88 | 1016.2 |
| 20260505232722 | 11 | 296 | 11.3 | 12.9 | 0.00 | 0.00 | 0.00 | 88 | 1016.2 |
| 20260505232209 | 11 | 294 | 8.0 | 12.9 | 0.00 | 0.00 | 0.00 | 89 | 1016.3 |
| 20260505231656 | 11 | 320 | 9.7 | 12.9 | 0.00 | 0.00 | 0.00 | 89 | 1016.3 |
| 20260505231143 | 11 | 316 | 9.7 | 12.9 | 0.00 | 0.00 | 0.00 | 89 | 1016.3 |
| 20260505230630 | 11 | 315 | 8.0 | 14.5 | 0.00 | 0.00 | 0.00 | 89 | 1016.3 |
| 20260505230119 | 11 | 320 | 6.4 | 14.5 | 0.00 | 0.00 | 0.00 | 89 | 1016.3 |
| 20260505225656 | 11 | 327 | 9.7 | 14.5 | 0.00 | 0.00 | 0.00 | 89 | 1016.3 |
| 20260505225604 | 11 | 327 | 9.7 | 14.5 | 0.00 | 0.00 | 0.00 | 89 | 1016.3 |
| 20260505225051 | 11 | 289 | 8.0 | 14.5 | 0.00 | 0.00 | 0.00 | 89 | 1016.4 |
| 20260505224538 | 11 | 330 | 8.0 | 14.5 | 0.00 | 0.00 | 0.00 | 89 | 1016.4 |
| 20260505224025 | 11 | 295 | 9.7 | 14.5 | 0.00 | 0.00 | 0.00 | 89 | 1016.4 |
| 20260505222959 | 11 | 309 | 9.7 | 12.9 | 0.00 | 0.00 | 0.00 | 89 | 1016.3 |
| 20260505222446 | 11 | 327 | 9.7 | 12.9 | 0.00 | 0.00 | 0.00 | 89 | 1016.4 |
| 20260505221933 | 11 | 334 | 9.7 | 12.9 | 0.00 | 0.00 | 0.00 | 89 | 1016.4 |
| 20260505221420 | 11 | 320 | 8.0 | 12.9 | 0.00 | 0.00 | 0.00 | 89 | 1016.5 |
| 20260505220907 | 11 | 0 | 0.0 | 12.9 | 0.00 | 0.00 | 0.00 | 90 | 1016.4 |
| 20260505220354 | 11 | 306 | 8.0 | 12.9 | 0.00 | 0.00 | 0.00 | 89 | 1016.4 |
| 20260505215841 | 11 | 316 | 0.0 | 9.7 | 0.00 | 0.00 | 0.00 | 89 | 1016.5 |
| 20260505215328 | 11 | 0 | 0.0 | 11.3 | 0.00 | 0.00 | 0.00 | 90 | 1016.7 |
| 20260505214302 | 11 | 282 | 9.7 | 11.3 | 0.00 | 0.00 | 0.00 | 90 | 1016.7 |
| 20260505213749 | 11 | 298 | 0.0 | 8.0 | 0.00 | 0.00 | 0.00 | 90 | 1016.8 |
| 20260505213236 | 11 | 306 | 3.2 | 11.3 | 0.00 | 0.00 | 0.00 | 90 | 1016.8 |
| 20260505212723 | 11 | 289 | 3.2 | 11.3 | 0.00 | 0.00 | 0.00 | 90 | 1016.8 |
| 20260505212210 | 11 | 310 | 6.4 | 11.3 | 0.00 | 0.00 | 0.00 | 90 | 1016.8 |
| 20260505211144 | 11 | 278 | 6.4 | 11.3 | 0.00 | 0.00 | 0.00 | 90 | 1016.7 |
| 20260505210631 | 11 | 305 | 0.0 | 9.7 | 0.00 | 0.00 | 0.00 | 90 | 1016.7 |
| 20260505210119 | 11 | 267 | 4.8 | 9.7 | 0.00 | 0.00 | 0.00 | 90 | 1016.7 |
| 20260505205605 | 11 | 303 | 8.0 | 11.3 | 0.00 | 0.00 | 0.00 | 90 | 1016.7 |
| 20260505205052 | 11 | 0 | 0.0 | 11.3 | 0.00 | 0.00 | 0.00 | 90 | 1016.8 |
| 20260505204539 | 11 | 289 | 4.8 | 8.0 | 0.00 | 0.00 | 0.00 | 90 | 1016.8 |
| 20260505204026 | 11 | 0 | 0.0 | 0.0 | 0.00 | 0.00 | 0.00 | 90 | 1016.9 |
| 20260505203514 | 11 | 292 | 4.8 | 9.7 | 0.00 | 0.00 | 0.00 | 90 | 1016.9 |
| 20260505203000 | 11 | 0 | 0.0 | 9.7 | 0.00 | 0.00 | 0.00 | 90 | 1017.0 |
| 20260505202447 | 11 | 316 | 4.8 | 9.7 | 0.00 | 0.00 | 0.00 | 90 | 1016.9 |
| 20260505201934 | 11 | 298 | 4.8 | 9.7 | 0.00 | 0.00 | 0.00 | 89 | 1017.0 |
| 20260505201421 | 11 | 296 | 4.8 | 9.7 | 0.00 | 0.00 | 0.00 | 90 | 1017.0 |
| 20260505200907 | 11 | 327 | 4.8 | 8.0 | 0.00 | 0.00 | 0.00 | 89 | 1016.9 |
| 20260505200355 | 11 | 0 | 0.0 | 9.7 | 0.00 | 0.00 | 0.00 | 89 | 1017.0 |
| 20260505195841 | 11 | 0 | 0.0 | 9.7 | 0.00 | 0.00 | 0.00 | 89 | 1017.0 |
| 20260505194815 | 11 | 292 | 0.0 | 12.9 | 0.00 | 0.00 | 0.00 | 90 | 1016.9 |
| 20260505194302 | 11 | 0 | 0.0 | 12.9 | 0.00 | 0.00 | 0.00 | 90 | 1016.8 |
| 20260505193749 | 11 | 310 | 6.4 | 12.9 | 0.00 | 0.00 | 0.00 | 90 | 1016.8 |
| 20260505193238 | 11 | 291 | 1.6 | 12.9 | 0.00 | 0.00 | 0.00 | 90 | 1016.8 |
| 20260505192723 | 11 | 295 | 4.8 | 12.9 | 0.00 | 0.00 | 0.00 | 90 | 1016.6 |
| 20260505192210 | 11 | 274 | 4.8 | 12.9 | 0.00 | 0.00 | 0.00 | 90 | 1016.7 |
| 20260505191144 | 11 | 215 | 0.0 | 11.3 | 0.00 | 0.00 | 0.00 | 90 | 1016.7 |
| 20260505190631 | 11 | 295 | 1.6 | 11.3 | 0.00 | 0.00 | 0.00 | 90 | 1016.6 |
| 20260505190118 | 11 | 168 | 0.0 | 12.9 | 0.00 | 0.00 | 0.00 | 90 | 1016.7 |
| 20260505185605 | 11 | 224 | 3.2 | 12.9 | 0.00 | 0.00 | 0.00 | 90 | 1016.7 |
| 20260505185052 | 11 | 305 | 3.2 | 12.9 | 0.00 | 0.00 | 0.00 | 90 | 1016.7 |
| 20260505184539 | 11 | 257 | 0.0 | 12.9 | 0.00 | 0.00 | 0.00 | 90 | 1016.6 |
| 20260505184026 | 11 | 259 | 4.8 | 12.9 | 0.00 | 0.00 | 0.00 | 90 | 1016.6 |
| 20260505183513 | 11 | 309 | 1.6 | 12.9 | 0.00 | 0.00 | 0.00 | 90 | 1016.6 |
| 20260505183000 | 11 | 352 | 4.8 | 12.9 | 0.00 | 0.00 | 0.00 | 91 | 1016.5 |
| 20260505182447 | 11 | 291 | 6.4 | 12.9 | 0.00 | 0.00 | 0.00 | 90 | 1016.5 |
| 20260505181935 | 11 | 309 | 1.6 | 12.9 | 0.00 | 0.00 | 0.00 | 91 | 1016.4 |
| 20260505181421 | 11 | 277 | 1.6 | 12.9 | 0.00 | 0.00 | 0.00 | 91 | 1016.5 |
| 20260505180908 | 11 | 305 | 3.2 | 12.9 | 0.00 | 0.00 | 0.00 | 91 | 1016.4 |
| 20260505180356 | 11 | 287 | 0.0 | 9.7 | 0.00 | 0.00 | 0.00 | 91 | 1016.4 |
| 20260505175842 | 11 | 309 | 3.2 | 9.7 | 0.00 | 0.00 | 0.00 | 91 | 1016.4 |
| 20260505175330 | 11 | 0 | 0.0 | 9.7 | 0.00 | 0.00 | 0.00 | 91 | 1016.5 |
| 20260505174303 | 11 | 0 | 0.0 | 12.9 | 0.00 | 0.00 | 0.00 | 91 | 1016.4 |
| 20260505173750 | 11 | 301 | 0.0 | 12.9 | 0.00 | 0.00 | 0.00 | 91 | 1016.3 |
| 20260505173237 | 11 | 292 | 1.6 | 12.9 | 0.00 | 0.00 | 0.00 | 91 | 1016.4 |
| 20260505172724 | 11 | 292 | 4.8 | 9.7 | 0.00 | 0.00 | 0.00 | 91 | 1016.3 |
| 20260505172212 | 11 | 284 | 0.0 | 9.7 | 0.00 | 0.00 | 0.00 | 91 | 1016.3 |
| 20260505171658 | 11 | 315 | 0.0 | 9.7 | 0.00 | 0.00 | 0.00 | 91 | 1016.2 |
| 20260505171145 | 11 | 0 | 0.0 | 9.7 | 0.00 | 0.00 | 0.00 | 91 | 1016.2 |
| 20260505170632 | 11 | 309 | 4.8 | 9.7 | 0.00 | 0.00 | 0.00 | 91 | 1016.1 |
| 20260505170119 | 11 | 0 | 0.0 | 0.0 | 0.00 | 0.00 | 0.00 | 91 | 1016.2 |
| 20260505165606 | 11 | 281 | 1.6 | 6.4 | 0.00 | 0.00 | 0.00 | 91 | 1016.2 |
| 20260505165053 | 11 | 0 | 0.0 | 6.4 | 0.00 | 0.00 | 0.00 | 91 | 1016.2 |
| 20260505164540 | 11 | 295 | 1.6 | 6.4 | 0.00 | 0.00 | 0.00 | 91 | 1016.3 |
| 20260505164027 | 11 | 0 | 0.0 | 0.0 | 0.00 | 0.00 | 0.00 | 91 | 1016.2 |
| 20260505163514 | 11 | 0 | 0.0 | 9.7 | 0.00 | 0.00 | 0.00 | 91 | 1016.2 |
| 20260505163001 | 11 | 278 | 0.0 | 9.7 | 0.00 | 0.00 | 0.00 | 91 | 1016.2 |
| 20260505162448 | 11 | 294 | 1.6 | 9.7 | 0.00 | 0.00 | 0.00 | 91 | 1016.2 |
| 20260505161937 | 11 | 288 | 1.6 | 9.7 | 0.00 | 0.00 | 0.00 | 91 | 1016.3 |
| 20260505161423 | 11 | 0 | 0.0 | 8.0 | 0.00 | 0.00 | 0.00 | 91 | 1016.3 |
| 20260505160909 | 11 | 268 | 1.6 | 8.0 | 0.00 | 0.00 | 0.00 | 91 | 1016.2 |
| 20260505160356 | 11 | 0 | 0.0 | 8.0 | 0.00 | 0.00 | 0.00 | 91 | 1016.2 |
| 20260505153238 | 11 | 0 | 0.0 | 0.0 | 0.00 | 0.00 | 0.00 | 90 | 1016.3 |
| 20260505152725 | 11 | 0 | 0.0 | 0.0 | 0.00 | 0.00 | 0.00 | 90 | 1016.2 |
| 20260505152213 | 11 | 0 | 0.0 | 0.0 | 0.00 | 0.00 | 0.00 | 90 | 1016.2 |
| 20260505151659 | 11 | 0 | 0.0 | 0.0 | 0.00 | 0.00 | 0.00 | 90 | 1016.2 |
| 20260505151146 | 11 | 0 | 0.0 | 0.0 | 0.00 | 0.00 | 0.00 | 90 | 1016.1 |
| 20260505150633 | 11 | 0 | 0.0 | 0.0 | 0.00 | 0.00 | 0.00 | 90 | 1016.1 |
| 20260505150120 | 11 | 0 | 0.0 | 0.0 | 0.00 | 0.00 | 0.00 | 90 | 1016.1 |
| 20260505140358 | 11 | 0 | 0.0 | 0.0 | 0.00 | 0.00 | 0.00 | 90 | 1015.6 |
| 20260505130121 | 11 | 0 | 0.0 | 0.0 | 0.00 | 0.00 | 0.00 | 90 | 1015.2 |
| 20260505124542 | 11 | 0 | 0.0 | 0.0 | 0.00 | 0.00 | 0.00 | 90 | 1015.2 |
| 20260505124029 | 11 | 0 | 0.0 | 0.0 | 0.00 | 0.00 | 0.00 | 90 | 1015.2 |
| 20260505123516 | 11 | 0 | 0.0 | 0.0 | 0.00 | 0.00 | 0.00 | 90 | 1015.2 |
| 20260505123003 | 11 | 0 | 0.0 | 0.0 | 0.00 | 0.00 | 0.00 | 90 | 1015.1 |
| 20260505122450 | 11 | 0 | 0.0 | 0.0 | 0.00 | 0.00 | 0.00 | 90 | 1015.1 |
| 20260505121939 | 11 | 0 | 0.0 | 0.0 | 0.00 | 0.00 | 0.00 | 90 | 1015.1 |
| 20260505121424 | 11 | 0 | 0.0 | 0.0 | 0.00 | 0.00 | 0.00 | 90 | 1015.1 |
| 20260505120911 | 11 | 0 | 0.0 | 0.0 | 0.00 | 0.00 | 0.00 | 90 | 1015.1 |
| 20260505120358 | 11 | 0 | 0.0 | 0.0 | 0.00 | 0.00 | 0.00 | 90 | 1015.0 |
| 20260505115845 | 11 | 0 | 0.0 | 0.0 | 0.00 | 0.00 | 0.00 | 90 | 1015.0 |
| 20260505115332 | 11 | 0 | 0.0 | 0.0 | 0.00 | 0.00 | 0.00 | 90 | 1014.9 |
| 20260505114819 | 11 | 0 | 0.0 | 0.0 | 0.00 | 0.00 | 0.00 | 90 | 1014.9 |
| 20260505114306 | 11 | 0 | 0.0 | 0.0 | 0.00 | 0.00 | 0.00 | 90 | 1014.9 |
| 20260505113240 | 11 | 0 | 0.0 | 0.0 | 0.00 | 0.00 | 0.00 | 90 | 1014.9 |
| 20260505112727 | 11 | 0 | 0.0 | 0.0 | 0.00 | 0.00 | 0.00 | 90 | 1015.0 |
| 20260505112214 | 11 | 0 | 0.0 | 11.3 | 0.00 | 0.00 | 0.00 | 90 | 1015.0 |
| 20260505111701 | 11 | 0 | 0.0 | 11.3 | 0.00 | 0.00 | 0.00 | 90 | 1014.9 |
| 20260505111148 | 11 | 155 | 0.0 | 9.7 | 0.00 | 0.00 | 0.00 | 90 | 1015.0 |
| 20260505110635 | 11 | 0 | 0.0 | 8.0 | 0.00 | 0.00 | 0.00 | 90 | 1015.0 |
| 20260505110122 | 11 | 176 | 0.0 | 8.0 | 0.00 | 0.00 | 0.00 | 89 | 1015.0 |
| 20260505101938 | 11 | 0 | 0.0 | 9.7 | 0.00 | 0.00 | 0.00 | 89 | 1014.7 |
| 20260505101425 | 11 | 0 | 0.0 | 8.0 | 0.00 | 0.00 | 0.00 | 89 | 1014.7 |
| 20260505100912 | 11 | 0 | 0.0 | 8.0 | 0.00 | 0.00 | 0.00 | 89 | 1014.7 |
| 20260505100359 | 11 | 0 | 0.0 | 9.7 | 0.00 | 0.00 | 0.00 | 89 | 1014.8 |
| 20260505095846 | 11 | 0 | 0.0 | 9.7 | 0.00 | 0.00 | 0.00 | 89 | 1014.7 |
| 20260505095333 | 11 | 0 | 0.0 | 9.7 | 0.00 | 0.00 | 0.00 | 89 | 1014.8 |
| 20260505094820 | 11 | 0 | 0.0 | 0.0 | 0.00 | 0.00 | 0.00 | 88 | 1014.7 |
| 20260505094307 | 11 | 0 | 0.0 | 9.7 | 0.00 | 0.00 | 0.00 | 88 | 1014.6 |
| 20260505093754 | 11 | 270 | 0.0 | 9.7 | 0.00 | 0.00 | 0.00 | 88 | 1014.6 |
| 20260505093241 | 11 | 267 | 1.6 | 9.7 | 0.00 | 0.00 | 0.00 | 89 | 1014.5 |
| 20260505092728 | 11 | 0 | 0.0 | 6.4 | 0.00 | 0.00 | 0.00 | 88 | 1014.5 |
| 20260505092215 | 11 | 306 | 0.0 | 6.4 | 0.00 | 0.00 | 0.00 | 89 | 1014.5 |
| 20260505090636 | 11 | 0 | 0.0 | 0.0 | 0.00 | 0.00 | 0.00 | 89 | 1014.3 |
| 20260505090123 | 11 | 0 | 0.0 | 8.0 | 0.00 | 0.00 | 0.00 | 89 | 1014.4 |
| 20260505085610 | 11 | 0 | 0.0 | 8.0 | 0.00 | 0.00 | 0.00 | 89 | 1014.3 |
| 20260505085057 | 11 | 225 | 0.0 | 8.0 | 0.00 | 0.00 | 0.00 | 89 | 1014.3 |
| 20260505084544 | 11 | 0 | 0.0 | 0.0 | 0.00 | 0.00 | 0.00 | 89 | 1014.4 |
| 20260505083518 | 11 | 0 | 0.0 | 0.0 | 0.00 | 0.00 | 0.00 | 89 | 1014.4 |
| 20260505083005 | 11 | 299 | 0.0 | 9.7 | 0.00 | 0.00 | 0.00 | 89 | 1014.5 |